Tracking 29892 objects as of 21-Nov-2024
HD Live streaming from Space Station
objects crossing your sky now

COSMOS 1867 COOLANT

Track COSMOS 1867 COOLANT now!
10-day predictions


NORAD ID: 43325
Int'l Code: 1987-060AS
Perigee: 771.7 km
Apogee: 798.1 km
Inclination: 65.0 °
Period: 100.4 minutes
Semi major axis: 7155 km
RCS: Unknown
Launch date: July 10, 1987
Source: Commonwealth of Independent States (former USSR) (CIS)
Launch site: TYURATAM MISSILE AND SPACE COMPLEX (TTMTR)

Note: This is SATELLITE DEBRIS
Your satellite tracking list
Your tracking list is empty




NASA's NSSDC Master Catalog

Two Line Element Set (TLE):
1 43325U 87060AS  24324.31233992  .00000693  00000-0  28229-3 0  9999
2 43325  65.0085 178.1807 0018478 260.3975  99.5023 14.34192212516082
Source of the keplerian elements: AFSPC